Kilmarnock, Virginia, United States (22482)
Lat: 37.71N, Lon: 76.38W
Wx Zone: VAZ078
Local Info
Past Weather Observations for Monday, August 18, 2014

NOTE: This archive is for the closest National Weather Service station to Kilmarnock. Information may differ from the station used for current weather conditions.

Click here for Long-term Archive

Time Weather Temperature Dewpoint Humidity Pressure Winds Precip Visibility
23:55
Clear
72°F / 22°C 70°F / 21°C 94% 29.92 in
(1013 mb)
Calm - 7SM
23:35
Clear
72°F / 22°C 70°F / 21°C 94% 29.95 in
(1014 mb)
Calm - 5SM
23:15
Clear
72°F / 22°C 70°F / 21°C 94% 29.95 in
(1014 mb)
Calm - 7SM
22:55
Clear
73°F / 23°C 70°F / 21°C 89% 29.95 in
(1014 mb)
Calm - 7SM
22:35
Clear
72°F / 22°C 70°F / 21°C 94% 29.95 in
(1014 mb)
Calm - 5SM
22:15
Clear
73°F / 23°C 70°F / 21°C 89% 29.95 in
(1014 mb)
Calm - 5SM
21:55
Clear
73°F / 23°C 70°F / 21°C 89% 29.95 in
(1014 mb)
Calm - 7SM
21:35
Clear
73°F / 23°C 70°F / 21°C 89% 29.95 in
(1014 mb)
Calm - 7SM
21:15
Clear
75°F / 24°C 72°F / 22°C 89% 29.95 in
(1014 mb)
Calm - 7SM
20:55
Clear
75°F / 24°C 72°F / 22°C 89% 29.95 in
(1014 mb)
Calm - 7SM
20:35
Clear
75°F / 24°C 72°F / 22°C 89% 29.95 in
(1014 mb)
Calm - 7SM
20:15
Clear
75°F / 24°C 72°F / 22°C 89% 29.95 in
(1014 mb)
Calm - 10SM
19:55
Clear
75°F / 24°C 72°F / 22°C 89% 29.95 in
(1014 mb)
Calm - 10SM
19:35
Partly Cloudy
77°F / 25°C 72°F / 22°C 83% 29.95 in
(1014 mb)
Calm - 10SM
19:15
Partly Cloudy
79°F / 26°C 72°F / 22°C 79% 29.95 in
(1014 mb)
Calm - 10SM
18:55
Clear
81°F / 27°C 70°F / 21°C 70% 29.92 in
(1013 mb)
Calm - 10SM
18:35
Clear
81°F / 27°C 70°F / 21°C 70% 29.92 in
(1013 mb)
Calm - 10SM
18:15
Clear
82°F / 28°C 70°F / 21°C 66% 29.92 in
(1013 mb)
Calm - 10SM
17:55
Clear
84°F / 29°C 66°F / 19°C 55% 29.92 in
(1013 mb)
SSW 4.6 mph
(SSW 7 kph)
- 10SM
17:35
Clear
84°F / 29°C 66°F / 19°C 55% 29.92 in
(1013 mb)
SSW 4.6 mph
(SSW 7 kph)
- 10SM
17:15
Partly Cloudy
84°F / 29°C 68°F / 20°C 58% 29.92 in
(1013 mb)
W 3.5 mph
(W 6 kph)
- 10SM
16:55
Partly Cloudy
84°F / 29°C 66°F / 19°C 55% 29.92 in
(1013 mb)
Calm - 10SM
16:35
Mostly Cloudy
84°F / 29°C 66°F / 19°C 55% 29.92 in
(1013 mb)
NW 3.5 mph
(NW 6 kph)
- 10SM
16:15
Overcast
84°F / 29°C 68°F / 20°C 58% 29.95 in
(1014 mb)
NNW 3.5 mph
(NNW 6 kph)
- 10SM
15:55
Overcast
84°F / 29°C 66°F / 19°C 55% 29.92 in
(1013 mb)
Calm - 10SM
15:35
Overcast
86°F / 30°C 64°F / 18°C 49% 29.92 in
(1013 mb)
Calm - 10SM
15:15
Overcast
86°F / 30°C 66°F / 19°C 52% 29.92 in
(1013 mb)
N 3.5 mph
(N 6 kph)
- 10SM
14:55
Overcast
84°F / 29°C 66°F / 19°C 55% 29.95 in
(1014 mb)
N 4.6 mph
(N 7 kph)
- 10SM
14:35
Overcast
84°F / 29°C 66°F / 19°C 55% 29.95 in
(1014 mb)
NNW 4.6 mph
(NNW 7 kph)
- 10SM
14:15
Overcast
84°F / 29°C 64°F / 18°C 51% 29.95 in
(1014 mb)
Calm - 10SM
13:55
Overcast
86°F / 30°C 64°F / 18°C 49% 29.95 in
(1014 mb)
NW 3.5 mph
(NW 6 kph)
- 10SM
13:35
Overcast
88°F / 31°C 63°F / 17°C 43% 29.95 in
(1014 mb)
NW 5.8 mph
(NW 9 kph)
- 10SM
13:15
Mostly Cloudy
88°F / 31°C 63°F / 17°C 43% 29.95 in
(1014 mb)
NW 6.9 mph
(NW 11 kph)
- 10SM
12:55
Partly Cloudy
88°F / 31°C 61°F / 16°C 40% 29.95 in
(1014 mb)
W 3.5 mph
(W 6 kph)
- 10SM
12:35
Mostly Cloudy
88°F / 31°C 61°F / 16°C 40% 29.95 in
(1014 mb)
W 3.5 mph
(W 6 kph)
- 10SM
12:15
Mostly Cloudy
86°F / 30°C 61°F / 16°C 43% 29.95 in
(1014 mb)
W 5.8 mph
(W 9 kph)
- 10SM
11:55
Partly Cloudy
88°F / 31°C 63°F / 17°C 43% 29.95 in
(1014 mb)
W 8.1 mph
(W 13 kph)
- 10SM
11:35
Partly Cloudy
86°F / 30°C 61°F / 16°C 43% 29.98 in
(1015 mb)
SSW 5.8 mph
(SSW 9 kph)
- 10SM
11:15
Partly Cloudy
86°F / 30°C 61°F / 16°C 43% 29.98 in
(1015 mb)
SW 3.5 mph
(SW 6 kph)
- 10SM
10:55
Partly Cloudy
86°F / 30°C 61°F / 16°C 43% 29.98 in
(1015 mb)
SSW 4.6 mph
(SSW 7 kph)
- 10SM
10:35
Clear
84°F / 29°C 61°F / 16°C 45% 29.98 in
(1015 mb)
W 3.5 mph
(W 6 kph)
- 10SM
10:15
Clear
84°F / 29°C 63°F / 17°C 48% 29.98 in
(1015 mb)
W 4.6 mph
(W 7 kph)
- 10SM
09:55
Clear
82°F / 28°C 63°F / 17°C 51% 29.98 in
(1015 mb)
W 6.9 mph
(W 11 kph)
- 10SM
09:35
Clear
82°F / 28°C 64°F / 18°C 55% 29.98 in
(1015 mb)
W 4.6 mph
(W 7 kph)
- 10SM
09:15
Clear
81°F / 27°C 66°F / 19°C 62% 29.98 in
(1015 mb)
W 3.5 mph
(W 6 kph)
- 10SM
08:55
Clear
79°F / 26°C 68°F / 20°C 70% 29.98 in
(1015 mb)
SSW 3.5 mph
(SSW 6 kph)
- 10SM
08:35
Clear
77°F / 25°C 68°F / 20°C 74% 29.98 in
(1015 mb)
Calm - 10SM
08:15
Clear
77°F / 25°C 68°F / 20°C 74% 29.98 in
(1015 mb)
WNW 4.6 mph
(WNW 7 kph)
- 10SM
07:55
Clear
75°F / 24°C 68°F / 20°C 78% 29.98 in
(1015 mb)
Calm - 10SM
07:35
Clear
75°F / 24°C 70°F / 21°C 83% 29.98 in
(1015 mb)
Calm - 10SM
07:15
Clear
73°F / 23°C 70°F / 21°C 89% 29.98 in
(1015 mb)
Calm - 7SM
06:55
Clear
73°F / 23°C 70°F / 21°C 89% 29.98 in
(1015 mb)
Calm - 7SM
06:35
Clear
73°F / 23°C 70°F / 21°C 89% 29.98 in
(1015 mb)
Calm - 7SM
06:15
Clear
70°F / 21°C 66°F / 19°C 88% 29.98 in
(1015 mb)
Calm - 7SM
05:55
Clear
70°F / 21°C 66°F / 19°C 88% 29.98 in
(1015 mb)
Calm - 3SM
05:35
Clear
72°F / 22°C 68°F / 20°C 88% 29.95 in
(1014 mb)
Calm - 7SM
05:15
Clear
72°F / 22°C 68°F / 20°C 88% 29.95 in
(1014 mb)
Calm - 10SM
04:55
Clear
72°F / 22°C 68°F / 20°C 88% 29.95 in
(1014 mb)
SSE 3.5 mph
(SSE 6 kph)
- 10SM
04:35
Clear
72°F / 22°C 68°F / 20°C 88% 29.95 in
(1014 mb)
Calm - 10SM
04:15
Clear
72°F / 22°C 68°F / 20°C 88% 29.95 in
(1014 mb)
SSW 3.5 mph
(SSW 6 kph)
- 10SM
03:55
Clear
72°F / 22°C 68°F / 20°C 88% 29.95 in
(1014 mb)
SW 4.6 mph
(SW 7 kph)
- 10SM
03:35
Clear
70°F / 21°C 66°F / 19°C 88% 29.95 in
(1014 mb)
SW 3.5 mph
(SW 6 kph)
- 10SM
03:15
Clear
68°F / 20°C 64°F / 18°C 88% 29.95 in
(1014 mb)
Calm - 7SM
02:55
Clear
70°F / 21°C 66°F / 19°C 88% 29.95 in
(1014 mb)
Calm - 10SM
02:35
Clear
70°F / 21°C 64°F / 18°C 83% 29.98 in
(1015 mb)
Calm - 10SM
02:15
Clear
72°F / 22°C 64°F / 18°C 78% 29.98 in
(1015 mb)
Calm - 10SM
01:55
Clear
72°F / 22°C 64°F / 18°C 78% 29.98 in
(1015 mb)
Calm - 10SM
01:35
Clear
68°F / 20°C 64°F / 18°C 88% 29.98 in
(1015 mb)
Calm - 10SM
01:15
Clear
66°F / 19°C 64°F / 18°C 94% 29.98 in
(1015 mb)
Calm - 10SM
00:55
Clear
66°F / 19°C 63°F / 17°C 88% 29.98 in
(1015 mb)
Calm - 10SM
00:35
Clear
66°F / 19°C 63°F / 17°C 88% 29.98 in
(1015 mb)
Calm - 10SM
00:15
Clear
66°F / 19°C 63°F / 17°C 88% 29.98 in
(1015 mb)
Calm - 10SM
Time Weather Temperature Dewpoint Humidity Pressure Winds Precip Visibility


Weather for websites

WeatherForYou.com, LLC is not responsible for any damages or problems caused by this service. Current weather conditions are obtained from the closest station including government and personal stations which may have varying degrees of accuracy. Weather forecasts are derived from the NOAA NDFD. Like all things, this site belongs to Jesus Christ... He just trusts me to maintain it. If you have any questions or comments email webmaster@weatherforyou.com

Copyright © 2014, WeatherForYou.com LLC. All rights reserved.